Time,TemperatureF,DewpointF,PressureIn,WindDirection,WindDirectionDegrees,WindSpeedMPH,WindSpeedGustMPH,Humidity,HourlyPrecipIn,Conditions,Clouds,dailyrainin,SoftwareType,DateUTC
2013-05-19 00:02:00,72.0,-99.9,-100.00,SE,141,8.0,-999.0,-999,0.00,,,0.00,,2013-05-19 05:02:00,
2013-05-19 00:12:00,72.0,-99.9,-100.00,SE,141,8.0,-999.0,-999,0.00,,,0.00,,2013-05-19 05:12:00,
2013-05-19 00:22:00,72.0,-99.9,-100.00,SE,141,8.0,-999.0,-999,0.00,,,0.00,,2013-05-19 05:22:00,
2013-05-19 00:32:00,71.0,-99.9,-100.00,SE,134,8.0,-999.0,-999,0.00,,,0.00,,2013-05-19 05:32:00,
2013-05-19 00:42:00,71.0,-99.9,-100.00,SE,134,8.0,-999.0,-999,0.00,,,0.00,,2013-05-19 05:42:00,
2013-05-19 00:52:00,71.0,-99.9,-100.00,SE,134,8.0,-999.0,-999,0.00,,,0.00,,2013-05-19 05:52:00,
2013-05-19 01:00:00,72.0,-99.9,-100.00,SSE,154,8.0,-999.0,-999,0.00,,,0.00,,2013-05-19 06:00:00,
2013-05-19 01:02:00,71.0,-99.9,-100.00,SE,133,9.0,-999.0,-999,0.00,,,0.00,,2013-05-19 06:02:00,
2013-05-19 01:12:00,71.0,-99.9,-100.00,SE,133,9.0,-999.0,-999,0.00,,,0.00,,2013-05-19 06:12:00,
2013-05-19 01:22:00,71.0,-99.9,-100.00,SE,133,9.0,-999.0,-999,0.00,,,0.00,,2013-05-19 06:22:00,
2013-05-19 01:32:00,72.0,-99.9,-100.00,SSE,154,8.0,-999.0,-999,0.00,,,0.00,,2013-05-19 06:32:00,
2013-05-19 01:42:00,72.0,-99.9,-100.00,SSE,154,8.0,-999.0,-999,0.00,,,0.00,,2013-05-19 06:42:00,
2013-05-19 01:52:00,72.0,-99.9,-100.00,SSE,154,8.0,-999.0,-999,0.00,,,0.00,,2013-05-19 06:52:00,
2013-05-19 02:00:00,71.0,-99.9,-100.00,SE,138,6.0,-999.0,-999,0.00,,,0.00,,2013-05-19 07:00:00,
2013-05-19 02:32:00,71.0,-99.9,-100.00,SE,138,6.0,-999.0,-999,0.00,,,0.00,,2013-05-19 07:32:00,
2013-05-19 02:42:00,71.0,-99.9,-100.00,SE,138,6.0,-999.0,-999,0.00,,,0.00,,2013-05-19 07:42:00,
2013-05-19 02:52:00,71.0,-99.9,-100.00,SE,138,6.0,-999.0,-999,0.00,,,0.00,,2013-05-19 07:52:00,
2013-05-19 03:32:00,72.0,-99.9,-100.00,SSE,150,5.0,-999.0,-999,0.00,,,0.00,,2013-05-19 08:32:00,
2013-05-19 03:42:00,72.0,-99.9,-100.00,SSE,150,5.0,-999.0,-999,0.00,,,0.00,,2013-05-19 08:42:00,
2013-05-19 03:52:00,72.0,-99.9,-100.00,SSE,150,5.0,-999.0,-999,0.00,,,0.00,,2013-05-19 08:52:00,
2013-05-19 04:02:00,72.0,-99.9,-100.00,SE,134,6.0,-999.0,-999,0.00,,,0.00,,2013-05-19 09:02:00,
2013-05-19 04:12:00,72.0,-99.9,-100.00,SE,134,6.0,-999.0,-999,0.00,,,0.00,,2013-05-19 09:12:00,
2013-05-19 04:21:00,72.0,-99.9,-100.00,SE,134,6.0,-999.0,-999,0.00,,,0.00,,2013-05-19 09:21:00,
2013-05-19 04:33:00,71.0,-99.9,-100.00,SE,145,4.0,-999.0,-999,0.00,,,0.00,,2013-05-19 09:33:00,
2013-05-19 04:43:00,71.0,-99.9,-100.00,SE,145,4.0,-999.0,-999,0.00,,,0.00,,2013-05-19 09:43:00,
2013-05-19 04:53:00,71.0,-99.9,-100.00,SE,145,4.0,-999.0,-999,0.00,,,0.00,,2013-05-19 09:53:00,
2013-05-19 05:03:00,71.0,-99.9,-100.00,SSE,149,3.0,-999.0,-999,0.00,,,0.00,,2013-05-19 10:03:00,
2013-05-19 05:13:00,71.0,-99.9,-100.00,SSE,149,3.0,-999.0,-999,0.00,,,0.00,,2013-05-19 10:13:00,
2013-05-19 05:23:00,71.0,-99.9,-100.00,SSE,149,3.0,-999.0,-999,0.00,,,0.00,,2013-05-19 10:23:00,
2013-05-19 05:33:00,70.0,-99.9,-100.00,SE,135,6.0,-999.0,-999,0.00,,,0.00,,2013-05-19 10:33:00,
2013-05-19 05:42:00,70.0,-99.9,-100.00,SE,135,6.0,-999.0,-999,0.00,,,0.00,,2013-05-19 10:42:00,
2013-05-19 05:53:00,70.0,-99.9,-100.00,SE,135,6.0,-999.0,-999,0.00,,,0.00,,2013-05-19 10:53:00,
2013-05-19 06:00:00,70.0,-99.9,-100.00,SSE,149,2.0,-999.0,-999,0.00,,,0.00,,2013-05-19 11:00:00,
2013-05-19 06:02:00,71.0,-99.9,-100.00,SE,139,6.0,-999.0,-999,0.00,,,0.00,,2013-05-19 11:02:00,
2013-05-19 06:12:00,71.0,-99.9,-100.00,SE,139,6.0,-999.0,-999,0.00,,,0.00,,2013-05-19 11:12:00,
2013-05-19 06:22:00,71.0,-99.9,-100.00,SE,139,6.0,-999.0,-999,0.00,,,0.00,,2013-05-19 11:22:00,
2013-05-19 06:32:00,70.0,-99.9,-100.00,SSE,149,2.0,-999.0,-999,0.00,,,0.00,,2013-05-19 11:32:00,
2013-05-19 06:42:00,70.0,-99.9,-100.00,SSE,149,2.0,-999.0,-999,0.00,,,0.00,,2013-05-19 11:42:00,
2013-05-19 06:53:00,70.0,-99.9,-100.00,SSE,149,2.0,-999.0,-999,0.00,,,0.00,,2013-05-19 11:53:00,
2013-05-19 07:30:00,70.0,-99.9,-100.00,SSE,149,5.0,-999.0,-999,0.00,,,0.00,,2013-05-19 12:30:00,
2013-05-19 07:32:00,70.0,-99.9,-100.00,SE,141,5.0,-999.0,-999,0.00,,,0.00,,2013-05-19 12:32:00,
2013-05-19 07:42:00,70.0,-99.9,-100.00,SE,141,5.0,-999.0,-999,0.00,,,0.00,,2013-05-19 12:42:00,
2013-05-19 07:52:00,70.0,-99.9,-100.00,SE,141,5.0,-999.0,-999,0.00,,,0.00,,2013-05-19 12:52:00,
2013-05-19 08:01:00,70.0,-99.9,-100.00,SSE,149,5.0,-999.0,-999,0.00,,,0.00,,2013-05-19 13:01:00,
2013-05-19 08:12:00,70.0,-99.9,-100.00,SSE,149,5.0,-999.0,-999,0.00,,,0.00,,2013-05-19 13:12:00,
2013-05-19 08:22:00,70.0,-99.9,-100.00,SSE,149,5.0,-999.0,-999,0.00,,,0.00,,2013-05-19 13:22:00,
2013-05-19 08:30:00,72.0,-99.9,-100.00,SE,126,4.0,-999.0,-999,0.00,,,0.00,,2013-05-19 13:30:00,
2013-05-19 09:02:00,72.0,-99.9,-100.00,SE,126,4.0,-999.0,-999,0.00,,,0.00,,2013-05-19 14:02:00,
2013-05-19 09:11:00,72.0,-99.9,-100.00,SE,126,4.0,-999.0,-999,0.00,,,0.00,,2013-05-19 14:11:00,
2013-05-19 09:21:00,72.0,-99.9,-100.00,SE,126,4.0,-999.0,-999,0.00,,,0.00,,2013-05-19 14:21:00,
2013-05-19 10:02:00,77.0,-99.9,-100.00,NW,304,0.0,-999.0,-999,0.00,,,0.00,,2013-05-19 15:02:00,
2013-05-19 10:12:00,77.0,-99.9,-100.00,NW,304,0.0,-999.0,-999,0.00,,,0.00,,2013-05-19 15:12:00,
2013-05-19 10:22:00,77.0,-99.9,-100.00,NW,304,0.0,-999.0,-999,0.00,,,0.00,,2013-05-19 15:22:00,
2013-05-19 10:33:00,80.0,-99.9,-100.00,SE,145,2.0,-999.0,-999,0.00,,,0.00,,2013-05-19 15:33:00,
2013-05-19 10:43:00,80.0,-99.9,-100.00,SE,145,2.0,-999.0,-999,0.00,,,0.00,,2013-05-19 15:43:00,
2013-05-19 10:53:00,80.0,-99.9,-100.00,SE,145,2.0,-999.0,-999,0.00,,,0.00,,2013-05-19 15:53:00,
2013-05-19 11:00:00,77.0,-99.9,-100.00,ESE,109,3.0,-999.0,-999,0.00,,,0.00,,2013-05-19 16:00:00,
2013-05-19 11:03:00,78.0,-99.9,-100.00,West,271,1.0,-999.0,-999,0.00,,,0.00,,2013-05-19 16:03:00,
2013-05-19 11:13:00,78.0,-99.9,-100.00,West,271,1.0,-999.0,-999,0.00,,,0.00,,2013-05-19 16:13:00,
2013-05-19 11:23:00,78.0,-99.9,-100.00,West,271,1.0,-999.0,-999,0.00,,,0.00,,2013-05-19 16:23:00,
2013-05-19 11:33:00,77.0,-99.9,-100.00,ESE,109,3.0,-999.0,-999,0.00,,,0.00,,2013-05-19 16:33:00,
2013-05-19 11:42:00,77.0,-99.9,-100.00,ESE,109,3.0,-999.0,-999,0.00,,,0.00,,2013-05-19 16:42:00,
2013-05-19 11:53:00,77.0,-99.9,-100.00,ESE,109,3.0,-999.0,-999,0.00,,,0.00,,2013-05-19 16:53:00,
2013-05-19 12:00:00,75.0,-99.9,-100.00,SE,124,7.0,-999.0,-999,0.00,,,0.00,,2013-05-19 17:00:00,
2013-05-19 12:32:00,75.0,-99.9,-100.00,SE,124,7.0,-999.0,-999,0.00,,,0.00,,2013-05-19 17:32:00,
2013-05-19 12:43:00,75.0,-99.9,-100.00,SE,124,7.0,-999.0,-999,0.00,,,0.00,,2013-05-19 17:43:00,
2013-05-19 12:52:00,75.0,-99.9,-100.00,SE,124,7.0,-999.0,-999,0.00,,,0.00,,2013-05-19 17:52:00,
2013-05-19 13:32:00,77.0,-99.9,-100.00,SE,128,12.0,-999.0,-999,0.00,,,0.00,,2013-05-19 18:32:00,
2013-05-19 13:43:00,77.0,-99.9,-100.00,SE,128,12.0,-999.0,-999,0.00,,,0.00,,2013-05-19 18:43:00,
2013-05-19 13:53:00,77.0,-99.9,-100.00,SE,128,12.0,-999.0,-999,0.00,,,0.00,,2013-05-19 18:53:00,
2013-05-19 14:01:00,78.0,-99.9,-100.00,SE,129,16.0,-999.0,-999,0.01,,,0.01,,2013-05-19 19:01:00,
2013-05-19 14:11:00,78.0,-99.9,-100.00,SE,129,16.0,-999.0,-999,0.01,,,0.01,,2013-05-19 19:11:00,
2013-05-19 14:22:00,78.0,-99.9,-100.00,SE,129,16.0,-999.0,-999,0.01,,,0.01,,2013-05-19 19:22:00,
2013-05-19 14:32:00,79.0,-99.9,-100.00,SE,131,14.0,-999.0,-999,0.01,,,0.01,,2013-05-19 19:32:00,
2013-05-19 14:42:00,79.0,-99.9,-100.00,SE,131,14.0,-999.0,-999,0.01,,,0.01,,2013-05-19 19:42:00,
2013-05-19 14:53:00,79.0,-99.9,-100.00,SE,131,14.0,-999.0,-999,0.01,,,0.01,,2013-05-19 19:53:00,
2013-05-19 15:02:00,79.0,-99.9,-100.00,SE,130,12.0,-999.0,-999,0.00,,,0.01,,2013-05-19 20:02:00,
2013-05-19 15:11:00,79.0,-99.9,-100.00,SE,130,12.0,-999.0,-999,0.00,,,0.01,,2013-05-19 20:11:00,
2013-05-19 15:22:00,79.0,-99.9,-100.00,SE,130,12.0,-999.0,-999,0.00,,,0.01,,2013-05-19 20:22:00,
2013-05-19 15:32:00,81.0,-99.9,-100.00,SE,133,16.0,-999.0,-999,0.00,,,0.01,,2013-05-19 20:32:00,
2013-05-19 15:42:00,81.0,-99.9,-100.00,SE,133,16.0,-999.0,-999,0.00,,,0.01,,2013-05-19 20:42:00,
2013-05-19 15:52:00,81.0,-99.9,-100.00,SE,133,16.0,-999.0,-999,0.00,,,0.01,,2013-05-19 20:52:00,
2013-05-19 16:02:00,81.0,-99.9,-100.00,SE,133,13.0,-999.0,-999,-99.99,,,0.01,,2013-05-19 21:02:00,
2013-05-19 16:32:00,83.0,-99.9,-100.00,SE,139,12.0,-999.0,-999,0.00,,,0.01,,2013-05-19 21:32:00,
2013-05-19 16:43:00,83.0,-99.9,-100.00,SE,139,12.0,-999.0,-999,0.00,,,0.01,,2013-05-19 21:43:00,
2013-05-19 16:53:00,83.0,-99.9,-100.00,SE,139,12.0,-999.0,-999,0.00,,,0.01,,2013-05-19 21:53:00,
2013-05-19 17:03:00,88.0,-99.9,-100.00,SE,139,12.0,-999.0,-999,-99.99,,,0.01,,2013-05-19 22:03:00,
2013-05-19 17:13:00,88.0,-99.9,-100.00,SE,139,12.0,-999.0,-999,-99.99,,,0.01,,2013-05-19 22:13:00,
2013-05-19 17:23:00,88.0,-99.9,-100.00,SE,139,12.0,-999.0,-999,-99.99,,,0.01,,2013-05-19 22:23:00,
2013-05-19 17:33:00,89.0,-99.9,-100.00,SE,140,14.0,-999.0,-999,0.00,,,0.01,,2013-05-19 22:33:00,
2013-05-19 17:43:00,89.0,-99.9,-100.00,SE,140,14.0,-999.0,-999,0.00,,,0.01,,2013-05-19 22:43:00,
2013-05-19 17:53:00,89.0,-99.9,-100.00,SE,140,14.0,-999.0,-999,0.00,,,0.01,,2013-05-19 22:53:00,
2013-05-19 18:03:00,86.0,-99.9,-100.00,SE,138,11.0,-999.0,-999,0.00,,,0.01,,2013-05-19 23:03:00,
2013-05-19 18:12:00,86.0,-99.9,-100.00,SE,138,11.0,-999.0,-999,0.00,,,0.01,,2013-05-19 23:12:00,
2013-05-19 18:22:00,86.0,-99.9,-100.00,SE,138,11.0,-999.0,-999,0.00,,,0.01,,2013-05-19 23:22:00,
2013-05-19 18:32:00,87.0,-99.9,-100.00,SE,139,11.0,-999.0,-999,0.00,,,0.01,,2013-05-19 23:32:00,
2013-05-19 18:42:00,87.0,-99.9,-100.00,SE,139,11.0,-999.0,-999,0.00,,,0.01,,2013-05-19 23:42:00,
2013-05-19 18:53:00,87.0,-99.9,-100.00,SE,139,11.0,-999.0,-999,0.00,,,0.01,,2013-05-19 23:53:00,
2013-05-19 19:02:00,84.0,-99.9,-100.00,SE,141,8.0,-999.0,-999,0.00,,,0.01,,2013-05-20 00:02:00,
2013-05-19 19:12:00,84.0,-99.9,-100.00,SE,141,8.0,-999.0,-999,0.00,,,0.01,,2013-05-20 00:12:00,
2013-05-19 19:22:00,84.0,-99.9,-100.00,SE,141,8.0,-999.0,-999,0.00,,,0.01,,2013-05-20 00:22:00,
2013-05-19 19:32:00,89.0,-99.9,-100.00,SE,145,9.0,-999.0,-999,0.00,,,0.01,,2013-05-20 00:32:00,
2013-05-19 19:42:00,89.0,-99.9,-100.00,SE,145,9.0,-999.0,-999,0.00,,,0.01,,2013-05-20 00:42:00,
2013-05-19 19:52:00,89.0,-99.9,-100.00,SE,145,9.0,-999.0,-999,0.00,,,0.01,,2013-05-20 00:52:00,
2013-05-19 20:01:00,86.0,-99.9,-100.00,SE,142,4.0,-999.0,-999,0.00,,,0.01,,2013-05-20 01:01:00,
2013-05-19 20:11:00,86.0,-99.9,-100.00,SE,142,4.0,-999.0,-999,0.00,,,0.01,,2013-05-20 01:11:00,
2013-05-19 20:22:00,86.0,-99.9,-100.00,SE,142,4.0,-999.0,-999,0.00,,,0.01,,2013-05-20 01:22:00,
2013-05-19 20:32:00,85.0,-99.9,-100.00,SE,146,6.0,-999.0,-999,0.00,,,0.01,,2013-05-20 01:32:00,
2013-05-19 20:42:00,85.0,-99.9,-100.00,SE,146,6.0,-999.0,-999,0.00,,,0.01,,2013-05-20 01:42:00,
2013-05-19 20:52:00,85.0,-99.9,-100.00,SE,146,6.0,-999.0,-999,0.00,,,0.01,,2013-05-20 01:52:00,
2013-05-19 21:00:00,84.0,-99.9,-100.00,SE,140,9.0,-999.0,-999,0.00,,,0.01,,2013-05-20 02:00:00,
2013-05-19 21:02:00,85.0,-99.9,-100.00,SE,146,9.0,-999.0,-999,0.00,,,0.01,,2013-05-20 02:02:00,
2013-05-19 21:12:00,85.0,-99.9,-100.00,SE,146,9.0,-999.0,-999,0.00,,,0.01,,2013-05-20 02:12:00,
2013-05-19 21:22:00,85.0,-99.9,-100.00,SE,146,9.0,-999.0,-999,0.00,,,0.01,,2013-05-20 02:22:00,
2013-05-19 21:32:00,84.0,-99.9,-100.00,SE,140,9.0,-999.0,-999,0.00,,,0.01,,2013-05-20 02:32:00,
2013-05-19 21:42:00,84.0,-99.9,-100.00,SE,140,9.0,-999.0,-999,0.00,,,0.01,,2013-05-20 02:42:00,
2013-05-19 21:52:00,84.0,-99.9,-100.00,SE,140,9.0,-999.0,-999,0.00,,,0.01,,2013-05-20 02:52:00,
2013-05-19 22:30:00,82.0,-99.9,-100.00,SE,134,9.0,-999.0,-999,0.00,,,0.01,,2013-05-20 03:30:00,
2013-05-19 22:33:00,82.0,-99.9,-100.00,SE,134,9.0,-999.0,-999,0.00,,,0.01,,2013-05-20 03:33:00,
2013-05-19 22:43:00,82.0,-99.9,-100.00,SE,134,9.0,-999.0,-999,0.00,,,0.01,,2013-05-20 03:43:00,
2013-05-19 22:53:00,82.0,-99.9,-100.00,SE,134,9.0,-999.0,-999,0.00,,,0.01,,2013-05-20 03:53:00,
2013-05-19 23:03:00,82.0,-99.9,-100.00,SE,134,9.0,-999.0,-999,0.00,,,0.01,,2013-05-20 04:03:00,
2013-05-19 23:13:00,82.0,-99.9,-100.00,SE,134,9.0,-999.0,-999,0.00,,,0.01,,2013-05-20 04:13:00,
2013-05-19 23:23:00,82.0,-99.9,-100.00,SE,134,9.0,-999.0,-999,0.00,,,0.01,,2013-05-20 04:23:00,